Regional Weather Roundup
Issued by NWS Boston, MA

Current Version | Previous Version | Text Only | Print | Product List | Glossary On
Versions: 1 2 3 4 5 6 7 8 9 10 11 12 13 14 15 16 17 18 19 20 21 22 23 24 25 26 27 28 29 30 31 32 33 34 35 36 37 38 39 40 41 42 43 44 45 46 47 48 49 50
000 ASUS41 KBOX 191710 RWRBOX REGIONAL WEATHER ROUNDUP NATIONAL WEATHER SERVICE BOSTON/NORTON MA 100 PM EDT THU APR 19 2018 NOTE: "FAIR" INDICATES FEW OR NO CLOUDS BELOW 12,000 FEET WITH NO SIGNIFICANT WEATHER AND/OR OBSTRUCTIONS TO VISIBILITY. MAZALL-191800- EASTERN MASSACHUSETTS CITY SKY/WX TMP DP RH WIND PRES REMARKS BOSTON CLOUDY 40 35 83 NW6 29.69S BEVERLY CLOUDY 40 36 86 VRB3 29.69R LAWRENCE CLOUDY 44 36 73 CALM 29.69S BEDFORD CLOUDY 39 35 86 N3 29.66F FOG BLUE HILL N/A 37 36 96 NW5 29.65S NORWOOD CLOUDY 42 36 79 VRB3 29.68S MARSHFIELD CLOUDY 39 37 93 CALM 29.69R PLYMOUTH CLOUDY 41 38 89 NE3 29.67F TAUNTON CLOUDY 40 37 89 N5 29.68F NEW BEDFORD CLOUDY 40 38 93 CALM 29.67F $$ MAZALL-191800- CAPE COD AND THE ISLANDS CITY SKY/WX TMP DP RH WIND PRES REMARKS FALMOUTH CLOUDY 39 37 93 NE10 29.67 HYANNIS CLOUDY 40 38 93 N10 29.65F CHATHAM CLOUDY 41 40 96 N7 29.68F PROVINCETOWN CLOUDY 39 37 92 VRB5 29.68F NANTUCKET LGT RAIN 41 40 96 N14 29.65S MARTHAS VNYRD CLOUDY 41 39 93 N10 29.66F $$ MAZALL-191800- CENTRAL AND WESTERN MASSACHUSETTS CITY SKY/WX TMP DP RH WIND PRES REMARKS WORCESTER CLOUDY 37 32 82 W8 29.65F WCI 31 FITCHBURG CLOUDY 46 35 65 N5 29.66F ORANGE CLOUDY 42 33 70 N6 29.68S SPRINGFIELD CLOUDY 41 34 75 CALM 29.67 WESTFIELD CLOUDY 42 36 79 CALM 29.68S NORTH ADAMS CLOUDY 39 32 76 CALM 29.69S PITTSFIELD CLOUDY 38 31 76 W12 29.66R WCI 30 $$ RIZALL-191800- RHODE ISLAND CITY SKY/WX TMP DP RH WIND PRES REMARKS PROVIDENCE LGT RAIN 41 39 93 N6 29.69R NEWPORT LGT RAIN 40 38 93 CALM 29.67S BLOCK ISLAND LGT RAIN 40 39 97 NE8 29.67F SMITHFIELD CLOUDY 38 36 92 MISG 29.67S WESTERLY LGT RAIN 43 40 89 NE6 29.66F $$ CTZALL-191800- CONNECTICUT CITY SKY/WX TMP DP RH WIND PRES REMARKS BRADLEY INTL CLOUDY 41 35 79 N3 29.69F HARTFORD LGT RAIN 41 36 82 N6 29.70F BRIDGEPORT LGT RAIN 43 37 79 NW5 29.70F DANBURY CLOUDY 40 35 83 NW6 29.70S GROTON LGT RAIN 43 41 93 NE7 29.64F NEW HAVEN LGT RAIN 42 36 79 N7 29.70S CHESTER LGT RAIN 41 37 87 NW8 29.67F MERIDEN LGT RAIN 40 36 86 NW8 29.70S WILLIMANTIC LGT RAIN 41 36 82 NW5 29.69S OXFORD CLOUDY 39 36 89 NW5 29.69S $$ MEZ002-015-021-024-NHZ003-005-008-011-012-014-VTZ005-008-191800- NORTHERN NEW ENGLAND CITY SKY/WX TMP DP RH WIND PRES REMARKS PORTLAND ME PTSUNNY 45 35 68 VRB5 29.66F BANGOR ME CLOUDY 47 29 49 CALM 29.65S CONCORD NH CLOUDY 47 29 49 VRB5 29.65F MANCHESTER NH PTSUNNY 45 32 60 NE5 29.66S NASHUA NH CLOUDY 44 35 70 N6 29.68F PORTSMOUTH NH PTSUNNY 42 37 81 NW5 29.65 JAFFREY NH CLOUDY 41 35 79 CALM 29.64F KEENE NH CLOUDY 46 30 53 N6 29.67R BURLINGTON VT PTSUNNY 43 25 49 NW15G22 29.71F MT. WASHINGTON SNOWSHWR 23 23 100 NW7 N/A VSB 0 WCI 15 $$ NYZ052-076-191800- EASTERN NEW YORK CITY SKY/WX TMP DP RH WIND PRES REMARKS ALBANY LGT RAIN 44 29 55 W10 29.71F NEW YORK CITY CLOUDY 45 36 70 NW10 29.72R $$ ANZALL-191800- MARINE OBSERVATIONS STATION/POSITION TIME TEMP WIND PRES VSBY WAVE AIR SEA DIR/SP/G HT/PER (UTC) (F) (DEG/KT/KT) (MB) (MI) (FT/S) BOSTON BUOY 1650 37 42 320/ 4/ 6 1004.6F 1/10 BUZZARDS BAY 1600 40 20/ 13/ 13 1005.4R NANTUCKET SOUND 1550 41 43 40/ 12/ 16 1004.4 1 MASS BAY-STELLWA 1604 36 41 1003.7F 2/11 ISLE OF SHOALS 1700 37 230/ 4/ 4 1004.7F S OF BLOCK IS 1643 41 N/A 3/ 9 $$ ......................KEY......................... SKY/WX - SKY CONDITION/PRESENT WEATHER TMP - TEMPERATURE IN FAHRENHEIT DWPT - DEWPOINT IN FAHRENHEIT RH - RELATIVE HUMIDITY IN PERCENT WIND - DIRECTION AND SPEED IN MPH PRES - MEAN SEA LEVEL PRESSURE IN INCHES OF HG WCI - WIND CHILL INDEX VSB - VISIBILITY IN MILES HX - HEAT INDEX TC - TEMPERATURE IN CELSIUS VRB - VARIABLE WIND DIRECTION N/A - NOT AVAILABLE

USA.gov is the U.S. government's official web portal to all federal, state and local government web resources and services.